Time,TemperatureF,DewpointF,PressureIn,WindDirection,WindDirectionDegrees,WindSpeedMPH,WindSpeedGustMPH,Humidity,HourlyPrecipIn,Conditions,Clouds,dailyrainin,SoftwareType,DateUTC
2015-03-28 00:02:00,36.7,27.5,30.08,NNE,15,4.0,7.0,69,0.00,,,0.00,Wunderground v.1.13,2015-03-28 04:02:00,
2015-03-28 00:07:00,36.7,27.5,30.09,NNW,337,4.0,12.0,69,0.00,,,0.00,Wunderground v.1.13,2015-03-28 04:07:00,
2015-03-28 00:13:00,36.6,27.4,30.09,NNE,21,5.0,10.0,69,0.00,,,0.00,Wunderground v.1.13,2015-03-28 04:13:00,
2015-03-28 00:18:00,36.4,26.8,30.09,North,355,6.0,11.0,68,0.00,,,0.00,Wunderground v.1.13,2015-03-28 04:18:00,
2015-03-28 00:24:00,36.2,26.3,30.09,North,11,7.0,9.0,67,0.00,,,0.00,Wunderground v.1.13,2015-03-28 04:24:00,
2015-03-28 00:29:00,36.0,26.1,30.09,NNE,16,7.0,9.0,67,0.00,,,0.00,Wunderground v.1.13,2015-03-28 04:29:00,
2015-03-28 00:35:00,35.9,26.4,30.09,North,360,6.0,6.0,68,0.00,,,0.00,Wunderground v.1.13,2015-03-28 04:35:00,
2015-03-28 00:41:00,35.8,26.3,30.09,NE,37,6.0,13.0,68,0.00,,,0.00,Wunderground v.1.13,2015-03-28 04:41:00,
2015-03-28 00:46:00,35.5,25.6,30.09,NNE,14,8.0,13.0,67,0.00,,,0.00,Wunderground v.1.13,2015-03-28 04:46:00,
2015-03-28 00:52:00,35.3,25.8,30.10,NNW,346,9.0,10.0,68,0.00,,,0.00,Wunderground v.1.13,2015-03-28 04:52:00,
2015-03-28 00:58:00,35.1,25.6,30.10,NE,40,8.0,12.0,68,0.00,,,0.00,Wunderground v.1.13,2015-03-28 04:58:00,
2015-03-28 01:04:00,34.9,25.8,30.10,North,355,7.0,8.0,69,0.00,,,0.00,Wunderground v.1.13,2015-03-28 05:04:00,
2015-03-28 01:09:00,34.8,25.7,30.10,North,355,6.0,10.0,69,0.00,,,0.00,Wunderground v.1.13,2015-03-28 05:09:00,
2015-03-28 01:15:00,34.6,25.1,30.10,North,360,7.0,7.0,68,0.00,,,0.00,Wunderground v.1.13,2015-03-28 05:15:00,
2015-03-28 01:21:00,34.4,24.2,30.10,NNW,346,8.0,10.0,66,0.00,,,0.00,Wunderground v.1.13,2015-03-28 05:21:00,
2015-03-28 01:27:00,34.4,23.5,30.10,NNW,344,9.0,9.0,64,0.00,,,0.00,Wunderground v.1.13,2015-03-28 05:27:00,
2015-03-28 01:32:00,34.4,23.5,30.11,North,355,7.0,9.0,64,0.00,,,0.00,Wunderground v.1.13,2015-03-28 05:32:00,
2015-03-28 01:38:00,34.3,23.4,30.11,North,350,5.0,6.0,64,0.00,,,0.00,Wunderground v.1.13,2015-03-28 05:38:00,
2015-03-28 01:43:00,34.1,23.6,30.11,NNW,346,4.0,6.0,65,0.00,,,0.00,Wunderground v.1.13,2015-03-28 05:43:00,
2015-03-28 01:49:00,33.9,23.7,30.11,NNW,336,4.0,6.0,66,0.00,,,0.00,Wunderground v.1.13,2015-03-28 05:49:00,
2015-03-28 01:54:00,33.7,23.5,30.11,NNW,332,6.0,10.0,66,0.00,,,0.00,Wunderground v.1.13,2015-03-28 05:54:00,
2015-03-28 02:00:00,33.6,23.8,30.11,NNW,342,7.0,7.0,67,0.00,,,0.00,Wunderground v.1.13,2015-03-28 06:00:00,
2015-03-28 02:05:00,33.5,23.7,30.11,North,355,6.0,9.0,67,0.00,,,0.00,Wunderground v.1.13,2015-03-28 06:05:00,
2015-03-28 02:11:00,33.5,23.7,30.11,North,350,6.0,7.0,67,0.00,,,0.00,Wunderground v.1.13,2015-03-28 06:11:00,
2015-03-28 02:16:00,33.5,23.7,30.11,NNE,29,7.0,9.0,67,0.00,,,0.00,Wunderground v.1.13,2015-03-28 06:16:00,
2015-03-28 02:22:00,33.5,24.1,30.11,NNE,28,7.0,10.0,68,0.00,,,0.00,Wunderground v.1.13,2015-03-28 06:22:00,
2015-03-28 02:27:00,33.4,24.7,30.11,NNE,21,7.0,7.0,70,0.00,,,0.00,Wunderground v.1.13,2015-03-28 06:27:00,
2015-03-28 02:32:00,32.9,25.2,30.11,NNE,18,8.0,11.0,73,0.00,,,0.00,Wunderground v.1.13,2015-03-28 06:32:00,
2015-03-28 02:38:00,32.3,25.9,30.12,NNE,24,8.0,8.0,77,0.00,,,0.00,Wunderground v.1.13,2015-03-28 06:38:00,
2015-03-28 02:43:00,31.8,25.7,30.12,NNE,19,5.0,9.0,78,0.00,,,0.00,Wunderground v.1.13,2015-03-28 06:43:00,
2015-03-28 02:49:00,31.5,25.7,30.12,NNE,20,5.0,5.0,79,0.00,,,0.00,Wunderground v.1.13,2015-03-28 06:49:00,
2015-03-28 02:55:00,31.4,25.6,30.12,NNE,30,2.0,4.0,79,0.00,,,0.00,Wunderground v.1.13,2015-03-28 06:55:00,
2015-03-28 03:00:00,31.3,25.5,30.12,North,355,1.0,2.0,79,0.00,,,0.00,Wunderground v.1.13,2015-03-28 07:00:00,
2015-03-28 03:06:00,31.3,25.2,30.11,North,355,2.0,4.0,78,0.00,,,0.00,Wunderground v.1.13,2015-03-28 07:06:00,
2015-03-28 03:12:00,31.3,24.9,30.11,NNW,346,4.0,5.0,77,0.00,,,0.00,Wunderground v.1.13,2015-03-28 07:12:00,
2015-03-28 03:17:00,31.3,24.3,30.11,NNW,332,5.0,7.0,75,0.00,,,0.00,Wunderground v.1.13,2015-03-28 07:17:00,
2015-03-28 03:23:00,31.4,23.4,30.11,NNW,341,5.0,9.0,72,0.00,,,0.00,Wunderground v.1.13,2015-03-28 07:23:00,
2015-03-28 03:28:00,31.5,22.8,30.11,NNW,340,7.0,9.0,70,0.00,,,0.00,Wunderground v.1.13,2015-03-28 07:28:00,
2015-03-28 03:33:00,31.5,22.1,30.11,NNW,342,8.0,8.0,68,0.00,,,0.00,Wunderground v.1.13,2015-03-28 07:33:00,
2015-03-28 03:39:00,31.6,22.2,30.11,NNW,344,6.0,7.0,68,0.00,,,0.00,Wunderground v.1.13,2015-03-28 07:39:00,
2015-03-28 03:45:00,31.4,21.7,30.11,NNW,346,4.0,5.0,67,0.00,,,0.00,Wunderground v.1.13,2015-03-28 07:45:00,
2015-03-28 03:50:00,31.3,22.3,30.11,North,9,4.0,4.0,69,0.00,,,0.00,Wunderground v.1.13,2015-03-28 07:50:00,
2015-03-28 03:56:00,31.2,22.5,30.11,NNW,337,4.0,9.0,70,0.00,,,0.00,Wunderground v.1.13,2015-03-28 07:56:00,
2015-03-28 04:01:00,31.0,22.4,30.11,North,355,4.0,5.0,70,0.00,,,0.00,Wunderground v.1.13,2015-03-28 08:01:00,
2015-03-28 04:07:00,30.9,22.3,30.12,NNW,347,4.0,9.0,70,0.00,,,0.00,Wunderground v.1.13,2015-03-28 08:07:00,
2015-03-28 04:12:00,30.8,22.2,30.11,NNW,330,6.0,11.0,70,0.00,,,0.00,Wunderground v.1.13,2015-03-28 08:12:00,
2015-03-28 04:17:00,30.8,21.8,30.12,North,9,8.0,10.0,69,0.00,,,0.00,Wunderground v.1.13,2015-03-28 08:17:00,
2015-03-28 04:23:00,30.9,21.9,30.12,North,5,6.0,7.0,69,0.00,,,0.00,Wunderground v.1.13,2015-03-28 08:23:00,
2015-03-28 04:29:00,31.0,21.3,30.12,NNW,346,4.0,8.0,67,0.00,,,0.00,Wunderground v.1.13,2015-03-28 08:29:00,
2015-03-28 04:35:00,31.0,20.6,30.12,North,360,4.0,5.0,65,0.00,,,0.00,Wunderground v.1.13,2015-03-28 08:35:00,
2015-03-28 04:40:00,31.1,20.0,30.12,North,9,5.0,5.0,63,0.00,,,0.00,Wunderground v.1.13,2015-03-28 08:40:00,
2015-03-28 04:46:00,31.1,20.0,30.12,NNW,348,4.0,7.0,63,0.00,,,0.00,Wunderground v.1.13,2015-03-28 08:46:00,
2015-03-28 04:52:00,31.1,19.2,30.12,North,10,5.0,9.0,61,0.00,,,0.00,Wunderground v.1.13,2015-03-28 08:52:00,
2015-03-28 04:57:00,31.2,18.9,30.13,North,355,6.0,7.0,60,0.00,,,0.00,Wunderground v.1.13,2015-03-28 08:57:00,
2015-03-28 05:03:00,31.1,18.8,30.13,North,9,5.0,6.0,60,0.00,,,0.00,Wunderground v.1.13,2015-03-28 09:03:00,
2015-03-28 05:09:00,31.1,18.8,30.13,NNW,346,5.0,13.0,60,0.00,,,0.00,Wunderground v.1.13,2015-03-28 09:09:00,
2015-03-28 05:14:00,31.0,18.7,30.13,NNE,31,7.0,9.0,60,0.00,,,0.00,Wunderground v.1.13,2015-03-28 09:14:00,
2015-03-28 05:20:00,31.0,18.7,30.14,NNW,343,7.0,10.0,60,0.00,,,0.00,Wunderground v.1.13,2015-03-28 09:20:00,
2015-03-28 05:25:00,30.9,18.6,30.14,North,355,7.0,7.0,60,0.00,,,0.00,Wunderground v.1.13,2015-03-28 09:25:00,
2015-03-28 05:31:00,30.9,18.6,30.14,North,360,6.0,6.0,60,0.00,,,0.00,Wunderground v.1.13,2015-03-28 09:31:00,
2015-03-28 05:36:00,30.8,18.1,30.14,North,360,5.0,6.0,59,0.00,,,0.00,Wunderground v.1.13,2015-03-28 09:36:00,
2015-03-28 05:42:00,30.7,17.7,30.14,NNW,346,6.0,7.0,58,0.00,,,0.00,Wunderground v.1.13,2015-03-28 09:42:00,
2015-03-28 05:47:00,30.7,17.3,30.14,NNW,338,7.0,14.0,57,0.00,,,0.00,Wunderground v.1.13,2015-03-28 09:47:00,
2015-03-28 05:53:00,30.8,17.7,30.15,NNE,15,11.0,13.0,58,0.00,,,0.00,Wunderground v.1.13,2015-03-28 09:53:00,
2015-03-28 05:58:00,30.8,18.1,30.15,North,355,7.0,10.0,59,0.00,,,0.00,Wunderground v.1.13,2015-03-28 09:58:00,
2015-03-28 06:04:00,30.7,18.1,30.15,North,9,3.0,6.0,59,0.00,,,0.00,Wunderground v.1.13,2015-03-28 10:04:00,
2015-03-28 06:10:00,30.6,17.6,30.16,North,355,4.0,4.0,58,0.00,,,0.00,Wunderground v.1.13,2015-03-28 10:10:00,
2015-03-28 06:15:00,30.6,17.6,30.16,NNE,17,4.0,4.0,58,0.00,,,0.00,Wunderground v.1.13,2015-03-28 10:15:00,
2015-03-28 06:21:00,30.5,17.5,30.16,NNE,19,5.0,8.0,58,0.00,,,0.00,Wunderground v.1.13,2015-03-28 10:21:00,
2015-03-28 06:27:00,30.3,17.7,30.16,NNE,30,7.0,7.0,59,0.00,,,0.00,Wunderground v.1.13,2015-03-28 10:27:00,
2015-03-28 06:33:00,30.3,17.7,30.17,NNW,344,6.0,7.0,59,0.00,,,0.00,Wunderground v.1.13,2015-03-28 10:33:00,
2015-03-28 06:38:00,30.3,17.7,30.17,North,355,5.0,8.0,59,0.00,,,0.00,Wunderground v.1.13,2015-03-28 10:38:00,
2015-03-28 06:44:00,30.3,17.3,30.17,NNE,33,6.0,10.0,58,0.00,,,0.00,Wunderground v.1.13,2015-03-28 10:44:00,
2015-03-28 06:50:00,30.3,17.3,30.18,NNE,29,5.0,9.0,58,0.00,,,0.00,Wunderground v.1.13,2015-03-28 10:50:00,
2015-03-28 06:56:00,30.3,16.9,30.18,NNE,30,5.0,5.0,57,0.00,,,0.00,Wunderground v.1.13,2015-03-28 10:56:00,
2015-03-28 07:02:00,30.2,17.2,30.18,NNW,328,6.0,10.0,58,0.00,,,0.00,Wunderground v.1.13,2015-03-28 11:02:00,
2015-03-28 07:08:00,30.2,16.8,30.18,NE,34,6.0,10.0,57,0.00,,,0.00,Wunderground v.1.13,2015-03-28 11:08:00,
2015-03-28 07:13:00,30.2,17.2,30.19,NNE,17,5.0,6.0,58,0.00,,,0.00,Wunderground v.1.13,2015-03-28 11:13:00,
2015-03-28 07:19:00,30.1,17.1,30.19,NNW,336,6.0,11.0,58,0.00,,,0.00,Wunderground v.1.13,2015-03-28 11:19:00,
2015-03-28 07:25:00,30.0,16.6,30.19,North,350,7.0,10.0,57,0.00,,,0.00,Wunderground v.1.13,2015-03-28 11:25:00,
2015-03-28 07:30:00,29.9,16.9,30.20,NNE,22,6.0,6.0,58,0.00,,,0.00,Wunderground v.1.13,2015-03-28 11:30:00,
2015-03-28 07:36:00,29.8,16.4,30.20,NNW,345,6.0,8.0,57,0.00,,,0.00,Wunderground v.1.13,2015-03-28 11:36:00,
2015-03-28 07:42:00,29.7,16.3,30.20,NNW,347,6.0,7.0,57,0.00,,,0.00,Wunderground v.1.13,2015-03-28 11:42:00,
2015-03-28 07:47:00,29.6,16.2,30.21,North,355,7.0,9.0,57,0.00,,,0.00,Wunderground v.1.13,2015-03-28 11:47:00,
2015-03-28 07:53:00,29.6,16.6,30.21,North,349,6.0,9.0,58,0.00,,,0.00,Wunderground v.1.13,2015-03-28 11:53:00,
2015-03-28 07:58:00,29.5,16.1,30.22,North,355,5.0,9.0,57,0.00,,,0.00,Wunderground v.1.13,2015-03-28 11:58:00,
2015-03-28 08:04:00,29.3,15.9,30.22,NNW,333,9.0,13.0,57,0.00,,,0.00,Wunderground v.1.13,2015-03-28 12:04:00,
2015-03-28 08:10:00,29.0,15.7,30.22,NNW,331,11.0,11.0,57,0.00,,,0.00,Wunderground v.1.13,2015-03-28 12:10:00,
2015-03-28 08:16:00,29.0,15.7,30.22,NW,317,10.0,11.0,57,0.00,,,0.00,Wunderground v.1.13,2015-03-28 12:16:00,
2015-03-28 08:21:00,29.0,16.1,30.22,NW,308,8.0,8.0,58,0.00,,,0.00,Wunderground v.1.13,2015-03-28 12:21:00,
2015-03-28 08:27:00,28.9,16.0,30.23,NNW,327,8.0,9.0,58,0.00,,,0.00,Wunderground v.1.13,2015-03-28 12:27:00,
2015-03-28 08:32:00,28.9,16.0,30.23,NW,310,9.0,9.0,58,0.00,,,0.00,Wunderground v.1.13,2015-03-28 12:32:00,
2015-03-28 08:37:00,28.9,16.0,30.23,NW,317,7.0,8.0,58,0.00,,,0.00,Wunderground v.1.13,2015-03-28 12:37:00,
2015-03-28 08:43:00,28.9,16.4,30.24,NW,309,7.0,10.0,59,0.00,,,0.00,Wunderground v.1.13,2015-03-28 12:43:00,
2015-03-28 08:48:00,29.0,16.1,30.24,NNW,332,7.0,12.0,58,0.00,,,0.00,Wunderground v.1.13,2015-03-28 12:48:00,
2015-03-28 08:54:00,29.1,16.1,30.24,NW,323,8.0,9.0,58,0.00,,,0.00,Wunderground v.1.13,2015-03-28 12:54:00,
2015-03-28 09:00:00,29.2,16.2,30.24,NNW,332,8.0,10.0,58,0.00,,,0.00,Wunderground v.1.13,2015-03-28 13:00:00,
2015-03-28 09:05:00,29.3,16.3,30.24,NW,313,8.0,10.0,58,0.00,,,0.00,Wunderground v.1.13,2015-03-28 13:05:00,
2015-03-28 09:10:00,29.6,16.6,30.25,NW,311,8.0,8.0,58,0.00,,,0.00,Wunderground v.1.13,2015-03-28 13:10:00,
2015-03-28 09:16:00,30.4,17.8,30.25,NW,309,6.0,6.0,59,0.00,,,0.00,Wunderground v.1.13,2015-03-28 13:16:00,
2015-03-28 09:21:00,30.7,17.7,30.25,NW,312,5.0,8.0,58,0.00,,,0.00,Wunderground v.1.13,2015-03-28 13:21:00,
2015-03-28 09:27:00,30.8,17.3,30.25,WNW,298,5.0,7.0,57,0.00,,,0.00,Wunderground v.1.13,2015-03-28 13:27:00,
2015-03-28 09:32:00,30.8,17.3,30.25,NW,307,5.0,9.0,57,0.00,,,0.00,Wunderground v.1.13,2015-03-28 13:32:00,
2015-03-28 09:37:00,30.7,17.3,30.25,WNW,301,5.0,5.0,57,0.00,,,0.00,Wunderground v.1.13,2015-03-28 13:37:00,
2015-03-28 09:43:00,31.0,17.5,30.26,WNW,301,4.0,7.0,57,0.00,,,0.00,Wunderground v.1.13,2015-03-28 13:43:00,
2015-03-28 09:49:00,31.1,17.2,30.26,NW,323,4.0,8.0,56,0.00,,,0.00,Wunderground v.1.13,2015-03-28 13:49:00,
2015-03-28 09:54:00,31.1,17.2,30.26,NW,304,4.0,6.0,56,0.00,,,0.00,Wunderground v.1.13,2015-03-28 13:54:00,
2015-03-28 10:00:00,31.4,17.5,30.26,NW,309,5.0,7.0,56,0.00,,,0.00,Wunderground v.1.13,2015-03-28 14:00:00,
2015-03-28 10:06:00,31.5,17.6,30.26,NW,304,6.0,6.0,56,0.00,,,0.00,Wunderground v.1.13,2015-03-28 14:06:00,
2015-03-28 10:12:00,31.7,18.2,30.26,NW,305,6.0,13.0,57,0.00,,,0.00,Wunderground v.1.13,2015-03-28 14:12:00,
2015-03-28 10:17:00,32.4,18.4,30.26,NW,326,6.0,8.0,56,0.00,,,0.00,Wunderground v.1.13,2015-03-28 14:17:00,
2015-03-28 10:23:00,32.8,18.0,30.27,NW,318,6.0,11.0,54,0.00,,,0.00,Wunderground v.1.13,2015-03-28 14:23:00,
2015-03-28 10:28:00,33.3,18.4,30.27,NW,306,5.0,6.0,54,0.00,,,0.00,Wunderground v.1.13,2015-03-28 14:28:00,
2015-03-28 10:34:00,34.1,19.2,30.27,NNW,348,4.0,8.0,54,0.00,,,0.00,Wunderground v.1.13,2015-03-28 14:34:00,
2015-03-28 10:40:00,34.1,19.2,30.27,WNW,287,4.0,9.0,54,0.00,,,0.00,Wunderground v.1.13,2015-03-28 14:40:00,
2015-03-28 10:45:00,34.5,18.7,30.27,WNW,302,4.0,5.0,52,0.00,,,0.00,Wunderground v.1.13,2015-03-28 14:45:00,
2015-03-28 10:51:00,34.4,17.7,30.27,NW,323,4.0,5.0,50,0.00,,,0.00,Wunderground v.1.13,2015-03-28 14:51:00,
2015-03-28 10:57:00,34.4,18.1,30.27,WNW,302,4.0,9.0,51,0.00,,,0.00,Wunderground v.1.13,2015-03-28 14:57:00,
2015-03-28 11:02:00,34.4,18.1,30.27,West,274,6.0,7.0,51,0.00,,,0.00,Wunderground v.1.13,2015-03-28 15:02:00,
2015-03-28 11:07:00,34.4,18.1,30.27,WNW,292,6.0,10.0,51,0.00,,,0.00,Wunderground v.1.13,2015-03-28 15:07:00,
2015-03-28 11:13:00,33.9,16.7,30.27,NNE,31,5.0,6.0,49,0.00,,,0.00,Wunderground v.1.13,2015-03-28 15:13:00,
2015-03-28 11:18:00,34.7,18.9,30.27,NNW,342,3.0,4.0,52,0.00,,,0.00,Wunderground v.1.13,2015-03-28 15:18:00,
2015-03-28 11:24:00,35.2,18.4,30.27,West,279,4.0,9.0,50,0.00,,,0.00,Wunderground v.1.13,2015-03-28 15:24:00,
2015-03-28 11:30:00,35.4,18.6,30.28,WNW,303,7.0,7.0,50,0.00,,,0.00,Wunderground v.1.13,2015-03-28 15:30:00,
2015-03-28 11:35:00,36.0,18.7,30.27,NW,305,5.0,5.0,49,0.00,,,0.00,Wunderground v.1.13,2015-03-28 15:35:00,
2015-03-28 11:41:00,35.9,18.6,30.27,NW,305,5.0,10.0,49,0.00,,,0.00,Wunderground v.1.13,2015-03-28 15:41:00,
2015-03-28 11:47:00,35.5,18.2,30.27,NNW,345,6.0,6.0,49,0.00,,,0.00,Wunderground v.1.13,2015-03-28 15:47:00,
2015-03-28 11:52:00,35.9,18.1,30.27,NNW,345,3.0,4.0,48,0.00,,,0.00,Wunderground v.1.13,2015-03-28 15:52:00,
2015-03-28 11:58:00,36.6,18.7,30.27,West,261,3.0,10.0,48,0.00,,,0.00,Wunderground v.1.13,2015-03-28 15:58:00,
2015-03-28 12:04:00,36.9,18.5,30.27,NNW,328,4.0,5.0,47,0.00,,,0.00,Wunderground v.1.13,2015-03-28 16:04:00,
2015-03-28 12:09:00,37.5,18.1,30.27,ENE,73,2.0,5.0,45,0.00,,,0.00,Wunderground v.1.13,2015-03-28 16:09:00,
2015-03-28 12:15:00,36.9,18.0,30.27,WNW,302,3.0,6.0,46,0.00,,,0.00,Wunderground v.1.13,2015-03-28 16:15:00,
2015-03-28 12:21:00,37.2,18.8,30.27,NW,321,5.0,6.0,47,0.00,,,0.00,Wunderground v.1.13,2015-03-28 16:21:00,
2015-03-28 12:26:00,37.1,18.2,30.27,North,360,6.0,8.0,46,0.00,,,0.00,Wunderground v.1.13,2015-03-28 16:26:00,
2015-03-28 12:32:00,36.1,16.8,30.27,ENE,64,7.0,7.0,45,0.00,,,0.00,Wunderground v.1.13,2015-03-28 16:32:00,
2015-03-28 12:38:00,36.0,16.7,30.27,ENE,61,6.0,6.0,45,0.00,,,0.00,Wunderground v.1.13,2015-03-28 16:38:00,
2015-03-28 12:44:00,36.9,18.0,30.27,North,9,5.0,7.0,46,0.00,,,0.00,Wunderground v.1.13,2015-03-28 16:44:00,
2015-03-28 12:49:00,37.0,19.1,30.27,NNE,14,4.0,5.0,48,0.00,,,0.00,Wunderground v.1.13,2015-03-28 16:49:00,
2015-03-28 12:55:00,37.7,18.2,30.27,WNW,302,4.0,4.0,45,0.00,,,0.00,Wunderground v.1.13,2015-03-28 16:55:00,
2015-03-28 13:00:00,38.4,18.9,30.27,NW,313,3.0,3.0,45,0.00,,,0.00,Wunderground v.1.13,2015-03-28 17:00:00,
2015-03-28 13:05:00,39.2,20.6,30.27,West,273,3.0,4.0,47,0.00,,,0.00,Wunderground v.1.13,2015-03-28 17:05:00,
2015-03-28 13:11:00,39.3,19.2,30.27,WNW,300,4.0,4.0,44,0.00,,,0.00,Wunderground v.1.13,2015-03-28 17:11:00,
2015-03-28 13:17:00,39.9,20.8,30.27,West,273,2.0,6.0,46,0.00,,,0.00,Wunderground v.1.13,2015-03-28 17:17:00,
2015-03-28 13:22:00,39.9,19.2,30.27,ENE,63,4.0,7.0,43,0.00,,,0.00,Wunderground v.1.13,2015-03-28 17:22:00,
2015-03-28 13:28:00,39.4,19.3,30.27,NW,309,5.0,12.0,44,0.00,,,0.00,Wunderground v.1.13,2015-03-28 17:28:00,
2015-03-28 13:33:00,39.5,20.4,30.27,NW,314,4.0,6.0,46,0.00,,,0.00,Wunderground v.1.13,2015-03-28 17:33:00,
2015-03-28 13:38:00,38.9,18.8,30.28,NW,324,5.0,7.0,44,0.00,,,0.00,Wunderground v.1.13,2015-03-28 17:38:00,
2015-03-28 13:44:00,38.3,17.7,30.27,ENE,70,4.0,5.0,43,0.00,,,0.00,Wunderground v.1.13,2015-03-28 17:44:00,
2015-03-28 13:49:00,38.1,19.1,30.27,NE,44,3.0,4.0,46,0.00,,,0.00,Wunderground v.1.13,2015-03-28 17:49:00,
2015-03-28 13:55:00,38.7,19.7,30.27,WNW,302,4.0,4.0,46,0.00,,,0.00,Wunderground v.1.13,2015-03-28 17:55:00,